Showing default

COSMOS 2532, 43753

Orbit data source: Space-Track

COSMOS 2532, 43753 is a payload satellite owned by VVKO VKS (CIS) in LEO that was launched on Fri, 30 Nov 2018 UTC via an ROKOT launch vehicle from the Plesetsk Missile And Space Complex (PKMTR). Payload-class satellites include a variety of spacecraft equipped with specific instruments for various scientific and technological missions. These include communications satellites like Starlink; space stations such as the ISS; scientific satellites like the Hubble; Earth observation satellites from companies like Planet Labs, Umbra, and HawkEye 360; GPS; miniature CubeSats for education and research; and military/defense satellites.

Loading next visibility...
Identifier
43753, 2018-097C
Orbit
LEO
Country
Flag of CISCIS
Related business
Manufacturer
Resehetnev ISS
Mission
Operational Defense Communications
Bus & Motor
STRELA-3M, Unknown motor
Mass
280 kg wet, 280 kg dry
Launch date (UTC)
2018-11-30 (7 years ago)
Launch vehicle
ROKOT
Launch site
Plesetsk Missile And Space Complex (PKMTR)
Object type
Payload
Rocket body
Debris
Shape & HBR
Cyl + 1 Ant, 3.5 m
Radar Cross Section
1.583 m², Large (>1 m²)

Expand to show TLE details & history
Last TLE update: 3 hours ago

TLE from 3 hours ago
0 COSMOS 2532
1 43753U 18097C   26125.84506900 -.00000042  00000-0 -37200-3 0  9998
2 43753  82.5133 248.4056 0018993 147.4692 212.7562 12.42908213337019
Epoch: 2026-05-05T20:16Z
TLE epoch observation values (Epoch: 2026-05-05T20:16:53.961Z)
Latitude
-0.00005°
Longitude
80.46668°
Altitude
1,509.584 km
Speed
7.104 km/s
True Right ascension
16h 33m 37s
True Declination
0° 00' 00"
Sunlit
Object was in full shadow at epoch
Visualization orbit readout
Latitude
Unknown
Longitude
Unknown
Altitude
Unknown
Speed
Unknown
Apparent Right ascension
Unknown
Apparent Declination
Unknown
Sunlit
N/A
Visualization observer readout
Local Sidereal Time
07:40:48
Azimuth
Unknown
Elevation
Unknown
Doppler factor
Unknown
Orbital elements
Apogee altitude
1,506.597 km
Perigee altitude
1,476.703 km
Semi-major axis
7,869.787 km
Eccentricity
0.0019
Inclination
82.5133°
RAAN
248.4056°
Arg. of periapsis
147.4692°
True anomaly
212.63868°
Mean anomaly
212.7562°
Eccentric anomaly
212.69741°
Mean motion
3.10884 °/min
Orbital period
115.8 mins
BSTAR
-0.000372
Loading maneuver chart data...
Computing Atmospheric mass density...
Loading historical data...
Loading historical data...
Loading historical data...
Loading historical data...
Loading historical data...
Loading historical data...
Loading historical data...
Other satellites on launch #97 in the year 2018 (2018-11-30 UTC)

Documentation

Showing up to 5 results
|